Regional Weather Roundup
Issued by NWS

Home | Current Version | Previous Version | Graphics & Text | Print | Product List | Glossary On
Versions: 1 2 3 4 5 6 7 8 9 10 11 12 13 14 15 16 17 18 19 20 21 22 23 24 25 26 27 28 29 30 31 32 33 34 35 36 37 38 39 40 41 42 43 44 45 46 47 48 49 50
000
ASUS43 KTOP 221908
RWRKS

WEATHER ROUNDUP FOR KANSAS
NATIONAL WEATHER SERVICE GOODLAND KS
200 PM CDT MON SEP 22 2014

NOTE:  "FAIR" INDICATES FEW OR NO CLOUDS BELOW 12,000 FEET WITH NO
SIGNIFICANT WEATHER AND/OR OBSTRUCTIONS TO VISIBILITY.

KSZ001>006-013>018-027>032-041>047-222000-
NORTHWEST KANSAS

CITY           SKY/WX    TMP DP  RH WIND       PRES   REMARKS
GOODLAND       PTSUNNY   75  51  43 S24G30    30.20F
HAYS           MOSUNNY   75  46  35 SE18      30.25F
HILL CITY      LGT RAIN  74  45  35 S13       30.24F
RUSSELL        MOSUNNY   74  48  39 SE12      30.25F
$$

KSZ061>065-074>080-084>089-222000-
SOUTHWEST KANSAS

CITY           SKY/WX    TMP DP  RH WIND       PRES   REMARKS
DODGE CITY     SUNNY     77  40  26 S18G24    30.27F
ELKHART          N/A     73  51  46 S17         N/A
GARDEN CITY    PTSUNNY   77  42  28 S18G28    30.25F
GREAT BEND     SUNNY     75  46  35 SE15      30.26F
LIBERAL        MOSUNNY   75  45  33 S14G23    30.28F
PRATT          SUNNY     73  39  29 SE9       30.28F
$$

KSZ066>073-081>083-090>101-222000-
SOUTHEAST KANSAS

CITY           SKY/WX    TMP DP  RH WIND       PRES   REMARKS
CHANUTE        SUNNY     73  50  44 E3        30.28F
COFFEYVILLE    SUNNY     73  52  47 VRB5      30.27F
HUTCHINSON     SUNNY     75  46  35 MISG      30.28F
MEDICINE LODGE   N/A     76  45  33 VRB6      30.25F
NEWTON         MOSUNNY   73  46  38 S5        30.30F
PARSONS        SUNNY     73  52  47 VRB3      30.29F
WICHITA INTL   MOSUNNY   76  41  28 MISG      30.27F
WICHITA JABRA  FAIR      75  43  31 SW5       30.27F
WICHITA MCCONL MOSUNNY   76  44  31 S8        30.27F
WINFIELD       MOSUNNY   72  48  42 SE8       30.28F
$$

KSZ007>012-019>026-033>040-048>060-102>105-222000-
NORTHEAST KANSAS

CITY           SKY/WX    TMP DP  RH WIND       PRES   REMARKS
CONCORDIA      PTSUNNY   72  50  45 VRB7      30.27F
EMPORIA        SUNNY     72  49  44 E6        30.28F
LAWRENCE       SUNNY     72  50  45 S7        30.28F
MANHATTAN      SUNNY     74  48  39 S9        30.27F
MARYSVILLE     SUNNY     72  50  46 SW6       30.27F
OLATHE IND     SUNNY     71  51  49 E7        30.29F
OLATHE EXE     SUNNY     71  51  49 CALM      30.28F
SALINA         MOSUNNY   73  47  39 SE6       30.27F
TOPEKA BILLARD SUNNY     74  49  41 CALM      30.28F
TOPEKA FORBES  SUNNY     73  49  42 VRB3      30.28F
$$


USA.gov is the U.S. government's official web portal to all federal, state and local government web resources and services.